Airfield :
LOGIN :

Register | Disclaimer

   EN    FR    IT 

 










Legend :    VFR   Marginal VFR   IFR   Intensive IFR   Very Intensive IFR
Visi :
Ceiling :
>= 8 km
>= 3000ft
5 to 8 km
1000 to 3000 ft
1500m to 5 km
500 to 1000 ft
800 to 1500m
200 to 500 ft
< 800m
< 200 ft
Symbols :   Thunderstorms  Fog  Heavy snow  Heavy precipitations  Wind > 20 kt
SIGMETs :     Misc.  Thunderstorms  Icing  Turbulence  Mountain Waves  Volcanic Ashes







- Airport Elevation : 296 ft
- IATA code : GKE


ETNG - Geilenkirchen

CURRENT METAR :
  • 161950Z 22009G19KT 9999 BKN024 06/02 Q1003 NOSIG

EXPIRED METARs :
  • 161850Z 23011G23KT 9999 BKN025 BKN210 06/01 Q1004 NOSIG
  • 161750Z 24008KT 9999 BKN026 BKN210 05/02 Q1005 NOSIG

TAF TAF ETNG
Valid from the 16 at 18:00 until the 17 at 09:00 UTC


161700Z 1618/1709 22010G18KT 9999 SCT025
BECMG 1619/1621 22014G24KT BKN020
TEMPO 1622/1702 24017G30KT 4000 RA BKN012
BECMG 1702/1704 23010KT
TEMPO 1708/1709 26015G27KT 4000 SHRAGS SCT015CB BKN020
No reported NOTAMs for that airfield.



MET'MAP, your aeronautical weather chart ! - Copyright ORBIFLY December 2007 - Disclaimer

ORBIFLY MET'MAP TEAM :

Programming & Development : Alexandra Zaïnal
Concept & Development : Baudouin d'Aumeries
Co-Development & Prog : Marc-Olivier Méhu
Technical & hardware support : Manuel Goepfert

Contact : metmap@orbifly.com




SOURCES & CREDITS :

   NOAA